This demonstration page uses our WeatherBlox Daily Observations layout. Learn more.

Left ArrowRight Arrow

39.01783, -85.05884

Hourly Observations for November 5, 2020

Temp ( °F °C ) Dew Point ( °F °C ) Humidity (%) Winds ( mph kmh ) Pressure ( in mb ) Visibility ( mi km ) Precip ( " mm )
12:52 am 00:52 Mostly Cloudy 53 11.7 38 3.3 57 57 SSW 7 11 30.28 1026 10 16.0934 0 0
1:52 am 01:52 Mostly Cloudy 51 10.6 38 3.3 61 61 SSW 8 13 30.28 1025 10 16.0934 0 0
2:52 am 02:52 Partly Cloudy 51 10.6 38 3.3 61 61 SSW 9 15 30.28 1025 10 16.0934 0 0
3:52 am 03:52 Mostly Cloudy 52 11.1 39 3.9 61 61 SSW 9 15 30.28 1026 10 16.0934 0 0
4:52 am 04:52 Partly Cloudy 51 10.6 39 3.9 64 64 SSW 10 17 30.29 1026 10 16.0934 0 0
5:52 am 05:52 Partly Cloudy 51 10.6 39 3.9 64 64 SSW 8 13 30.3 1026 10 16.0934 0 0
6:52 am 06:52 Mostly Cloudy 49 9.4 39 3.9 69 69 S 9 15 30.31 1026 10 16.0934 0 0
7:52 am 07:52 Mostly Cloudy 50 10 39 3.9 66 66 SSW 10 17 30.32 1027 10 16.0934 0 0
8:52 am 08:52 Mostly Cloudy 56 13.3 41 5 57 57 SSW 8 13 30.33 1027 10 16.0934 0 0
9:52 am 09:52 Mostly Cloudy 57 13.9 40 4.4 53 53 SW 10 17 30.32 1027 10 16.0934 0 0
10:52 am 10:52 Mostly Cloudy 62 16.7 43 6.1 50 50 SSW 8 13 30.31 1027 10 16.0934 0 0
11:52 am 11:52 Cloudy 62 16.7 42 5.6 48 48 SSW 10 17 30.3 1026 10 16.0934 0 0
12:52 pm 12:52 Cloudy 63 17.2 43 6.1 48 48 S 8 13 30.29 1026 10 16.0934 0 0
1:52 pm 13:52 Cloudy 66 18.9 44 6.7 45 45 S 12 19 30.28 1025 10 16.0934 0 0
2:52 pm 14:52 Cloudy 65 18.3 44 6.7 47 47 S 9 15 30.27 1025 10 16.0934 0 0
3:52 pm 15:52 Cloudy 65 18.3 44 6.7 47 47 S 10 17 30.26 1025 10 16.0934 0 0
4:52 pm 16:52 Cloudy 62 16.7 44 6.7 52 52 S 12 19 30.26 1025 10 16.0934 0 0
5:52 pm 17:52 Cloudy 61 16.1 43 6.1 52 52 SSW 7 11 30.26 1025 10 16.0934 0 0
6:52 pm 18:52 Cloudy 59 15 42 5.6 54 54 S 7 11 30.27 1025 10 16.0934 0 0
7:52 pm 19:52 Mostly Cloudy 57 13.9 42 5.6 58 58 SSW 6 9 30.27 1025 10 16.0934 0 0
8:52 pm 20:52 Partly Cloudy 54 12.2 42 5.6 64 64 S 7 11 30.27 1025 10 16.0934 0 0
9:52 pm 21:52 Partly Cloudy 50 10 41 5 71 71 S 7 11 30.28 1025 10 16.0934 0 0
10:52 pm 22:52 Partly Cloudy 52 11.1 41 5 66 66 SSW 5 7 30.28 1025 10 16.0934 0 0
11:52 pm 23:52 Partly Cloudy 52 11.1 41 5 66 66 Calm 30.28 1025 10 16.0934 0 0

Powered by AerisWeather